Location: ?????????
(55.6553°N, 38.9075°E)
Time: 15:21:27
(UTC+00:00)

Cosmos 1758 - Pass Details

Date: 18 October 2019
Orbit: 541 x 562 km, 82.5° (Epoch: 21 November)

Event Time Altitude Azimuth Distance (km) Brightness Sun altitude
Rises 01:50:08 0° 345° (NNW) 2,722 6.8 -19.0°
Reaches altitude 10° 01:52:19 10° 342° (NNW) 1,826 5.9 -18.7°
Maximum altitude 01:56:16 60° 263° (W) 630 3.2 -18.1°
Drops below altitude 10° 02:00:13 10° 183° (S) 1,821 5.8 -17.6°
Sets 02:02:24 0° 180° (S) 2,713 6.8 -17.3°
